DW1902 Weather Reports


time (UTC)temp
F
wind
direction
speed
knots
gust
knots
rain 1hr
in
rain 24hr
in
rain mn
in
humidity
%
barometer
mb
20260505065601 47 0 1.7 4.3 0.00 0.00 0.00 79 1009.9
20260505065346 47 0 1.7 5.2 0.00 0.00 0.00 78 1009.7
20260505064603 47 0 1.7 7.8 0.00 0.00 0.00 78 1009.9
20260505064101 48 0 3.5 7.8 0.00 0.00 0.00 78 1009.9
20260505063602 48 0 4.3 7.8 0.00 0.00 0.00 78 1009.8
20260505063102 48 0 3.5 7.8 0.00 0.00 0.00 77 1009.6
20260505062601 48 0 2.6 7.8 0.00 0.00 0.00 77 1009.5
20260505062101 48 0 3.5 7.8 0.00 0.00 0.00 77 1009.3
20260505061601 48 0 4.3 9.6 0.00 0.00 0.00 76 1009.3
20260505061103 48 0 2.6 9.6 0.00 0.00 0.00 77 1009.2
20260505060602 48 0 5.2 11.3 0.00 0.00 0.00 76 1009.4
20260505055601 48 0 4.3 10.4 0.00 0.00 0.00 76 1009.4
20260505055100 48 0 6.1 9.6 0.00 0.00 0.00 76 1009.5
20260505054600 48 0 4.3 9.6 0.00 0.00 0.00 75 1009.4
20260505054100 48 0 5.2 9.6 0.00 0.00 0.00 75 1009.2
20260505053600 48 0 3.5 10.4 0.00 0.00 0.00 75 1009.3
20260505053101 48 0 4.3 10.4 0.00 0.00 0.00 75 1009.3
20260505052559 49 0 4.3 9.6 0.00 0.00 0.00 74 1009.3
20260505052101 49 0 4.3 13.9 0.00 0.00 0.00 74 1009.2
20260505051559 49 0 5.2 13.9 0.00 0.00 0.00 74 1009.2
20260505051316 49 0 5.2 11.3 0.00 0.00 0.00 74 1009.1
20260505051310 49 0 5.2 12.2 0.00 0.00 0.00 74 1009.1
20260505051238 49 0 4.3 10.4 0.00 0.00 0.00 74 1009.2
20260505050437 49 0 6.1 12.2 0.00 0.00 0.00 74 1009.1
20260505041057 49 0 6.1 10.4 0.00 0.01 0.00 72 1008.9
20260505040559 49 0 6.1 13.9 0.00 0.01 0.00 71 1008.9
20260505040057 50 0 5.2 13.9 0.00 0.01 0.00 70 1008.9
20260505035558 50 0 4.3 13.9 0.00 0.01 0.00 70 1008.9
20260505035340 50 0 5.2 13.9 0.00 0.01 0.00 70 1008.8
20260505034559 50 0 4.3 11.3 0.00 0.01 0.00 69 1008.8
20260505034057 50 0 5.2 11.3 0.00 0.01 0.00 69 1008.7
20260505033557 51 0 3.5 13.9 0.00 0.01 0.00 68 1008.7
20260505033340 51 0 5.2 13.9 0.00 0.01 0.00 68 1008.5
20260505032557 51 0 6.1 12.2 0.00 0.01 0.00 68 1008.4
20260505032056 51 0 5.2 12.2 0.00 0.01 0.00 67 1008.4
20260505031557 51 0 5.2 14.8 0.00 0.01 0.00 67 1008.4
20260505031057 51 0 7.8 14.8 0.00 0.01 0.00 66 1008.1
20260505030558 51 0 7.0 13.0 0.00 0.02 0.00 66 1007.9
20260505030058 51 0 4.3 16.5 0.00 0.02 0.00 66 1007.9
20260505025556 51 0 7.8 16.5 0.00 0.02 0.02 65 1008.0
20260505025056 51 0 7.0 14.8 0.00 0.02 0.02 65 1007.9
20260505024554 52 0 5.2 14.8 0.00 0.02 0.02 65 1007.9
20260505024055 52 0 5.2 13.0 0.00 0.02 0.02 65 1007.8
20260505023556 52 0 5.2 13.9 0.00 0.02 0.02 65 1007.6
20260505023055 52 0 4.3 13.9 0.00 0.02 0.02 64 1007.6
20260505022555 52 0 7.0 13.0 0.00 0.02 0.02 64 1007.6
20260505022057 52 0 5.2 11.3 0.00 0.02 0.02 63 1007.6
20260505021555 52 0 6.1 15.6 0.00 0.02 0.02 63 1007.4
20260505021335 53 0 7.8 18.2 0.00 0.02 0.02 63 1007.3
20260505020555 53 0 9.6 18.2 0.00 0.02 0.02 62 1007.4
20260505020054 53 0 6.1 15.6 0.00 0.02 0.02 62 1007.2
20260505015555 53 0 6.1 13.9 0.00 0.02 0.02 62 1007.2
20260505015054 53 0 7.0 14.8 0.00 0.02 0.02 62 1007.0
20260505014840 53 0 7.8 14.8 0.00 0.02 0.02 62 1007.0
20260505014054 53 0 9.6 15.6 0.00 0.02 0.02 62 1007.0
20260505013553 53 0 8.7 15.6 0.00 0.02 0.02 62 1006.9
20260505013054 53 0 7.0 14.8 0.00 0.02 0.02 63 1006.9
20260505012552 53 0 7.8 13.9 0.00 0.02 0.02 63 1006.8
20260505012052 53 0 5.2 17.4 0.00 0.02 0.02 63 1006.7
20260505011553 53 0 7.0 17.4 0.00 0.02 0.02 63 1006.7
20260505011053 53 0 9.6 16.5 0.00 0.02 0.02 63 1006.6
20260505010554 52 0 6.1 14.8 0.00 0.02 0.02 64 1006.7
20260505010054 52 0 7.0 13.9 0.00 0.02 0.02 64 1006.5
20260505005553 52 0 7.8 13.0 0.00 0.02 0.02 64 1006.3
20260505005421 53 0 6.1 13.0 0.00 0.02 0.02 63 1006.2
20260505005125 52 0 5.2 12.2 0.00 0.02 0.02 64 1006.4
20260505004332 53 0 8.7 13.0 0.00 0.02 0.02 63 1006.2
20260505003553 53 0 6.1 13.0 0.00 0.02 0.02 63 1006.3
20260505003054 53 0 7.0 14.8 0.00 0.02 0.02 62 1006.1
20260505002842 53 0 8.7 16.5 0.00 0.03 0.02 62 1006.1
20260505002334 53 0 5.2 16.5 0.00 0.04 0.02 62 1006.1
20260505001552 53 0 7.8 15.6 0.00 0.05 0.02 61 1005.9
20260505001053 54 0 7.0 19.1 0.00 0.06 0.02 61 1005.8
20260505000848 54 0 7.8 14.8 0.00 0.08 0.02 59 1005.6
20260505000842 54 0 7.8 19.1 0.00 0.06 0.02 60 1005.7
20260504235552 54 0 7.8 16.5 0.00 0.09 0.02 59 1005.7
20260504235052 54 0 8.7 16.5 0.00 0.10 0.02 59 1005.5
20260504234551 54 0 9.6 19.1 0.00 0.12 0.02 59 1005.5
20260504234051 55 0 6.1 19.1 0.00 0.13 0.02 59 1005.4
20260504233552 55 0 7.8 18.2 0.00 0.13 0.02 58 1005.2
20260504233052 55 0 8.7 18.2 0.00 0.13 0.02 58 1005.1
20260504232550 55 0 6.1 13.0 0.00 0.14 0.02 59 1005.0
20260504232049 55 0 8.7 13.0 0.00 0.15 0.02 59 1004.9
20260504231838 55 0 6.1 13.9 0.00 0.15 0.02 59 1004.9
20260504231050 55 0 7.8 13.9 0.00 0.16 0.02 59 1004.8
20260504230551 55 0 4.3 15.6 0.00 0.16 0.02 59 1004.8
20260504230051 55 0 6.1 15.6 0.00 0.16 0.02 58 1004.7
20260504225550 56 0 6.1 16.5 0.00 0.17 0.02 58 1004.7
20260504225050 56 0 7.8 16.5 0.00 0.17 0.02 57 1004.7
20260504224550 56 0 7.0 15.6 0.00 0.17 0.02 57 1004.6
20260504224331 56 0 6.1 15.6 0.00 0.17 0.02 56 1004.5
20260504223548 57 0 3.5 11.3 0.00 0.18 0.02 55 1004.4
20260504223049 57 0 3.5 12.2 0.00 0.19 0.02 54 1004.5
20260504222550 58 0 7.8 13.9 0.00 0.20 0.02 53 1004.5
20260504222050 58 0 3.5 13.9 0.00 0.20 0.02 52 1004.5
20260504221838 58 0 7.0 13.9 0.00 0.20 0.02 51 1004.5
20260504221049 58 0 7.8 13.9 0.00 0.20 0.02 50 1004.4
20260504220845 59 0 6.1 20.0 0.00 0.21 0.02 50 1004.4
20260504220049 59 0 8.7 20.0 0.00 0.21 0.02 49 1004.3
20260504215549 59 0 4.3 15.6 0.00 0.22 0.02 51 1004.4
20260504215049 59 0 10.4 16.5 0.00 0.22 0.02 49 1004.3
20260504214548 59 0 7.8 16.5 0.00 0.23 0.02 49 1004.5
20260504214328 59 0 7.0 20.9 0.00 0.23 0.02 48 1004.6
20260504213849 59 0 7.0 20.9 0.00 0.23 0.02 49 1004.6
20260504213049 60 0 8.7 20.9 0.00 0.24 0.02 47 1004.7
20260504212844 60 0 10.4 20.9 0.00 0.24 0.02 46 1004.5
20260504212047 60 0 12.2 20.9 0.00 0.24 0.02 47 1004.5
20260504211547 61 0 11.3 27.8 0.00 0.24 0.02 46 1004.4
20260504211048 61 0 15.6 27.8 0.00 0.25 0.02 47 1004.5
20260504210550 61 0 8.7 19.1 0.00 0.26 0.02 46 1004.4
20260504210048 61 0 12.2 27.8 0.00 0.27 0.02 46 1004.3
20260504205548 61 0 13.9 28.7 0.00 0.28 0.02 46 1004.2
20260504205046 61 0 12.2 28.7 0.00 0.28 0.02 46 1004.2
20260504204547 61 0 13.0 26.1 0.00 0.29 0.02 45 1004.1
20260504204048 61 0 8.7 26.1 0.00 0.31 0.02 46 1003.9
20260504203546 62 0 13.0 20.0 0.00 0.31 0.02 45 1004.2
20260504203046 62 0 7.8 26.1 0.00 0.34 0.02 46 1003.9
20260504202546 62 0 8.7 26.1 0.00 0.35 0.02 46 1003.9
20260504202047 62 0 14.8 22.6 0.00 0.36 0.02 45 1003.9
20260504201547 62 0 8.7 24.3 0.00 0.37 0.02 47 1003.6
20260504201046 62 0 14.8 24.3 0.00 0.38 0.02 46 1003.6
20260504200545 62 0 10.4 26.9 0.00 0.39 0.02 47 1003.6
20260504200045 61 0 12.2 26.9 0.00 0.40 0.02 47 1003.6
20260504195842 61 0 12.2 25.2 0.00 0.41 0.02 48 1003.5
20260504195045 61 0 11.3 20.9 0.00 0.42 0.02 49 1003.4
20260504194545 61 0 10.4 25.2 0.00 0.43 0.02 50 1003.4
20260504194045 61 0 13.9 25.2 0.00 0.44 0.02 50 1003.3
20260504193545 62 0 8.7 20.9 0.00 0.46 0.02 49 1003.3
20260504193047 62 0 10.4 24.3 0.00 0.46 0.02 47 1003.5
20260504192547 62 0 7.8 24.3 0.00 0.48 0.02 47 1003.4
20260504192342 62 0 9.6 20.0 0.00 0.48 0.02 47 1003.2
20260504191545 61 0 9.6 23.5 0.00 0.50 0.02 47 1003.4
20260504191044 61 0 10.4 23.5 0.00 0.51 0.02 47 1003.4
20260504190545 61 0 10.4 20.0 0.00 0.52 0.02 45 1003.3
20260504190045 61 0 9.6 20.0 0.00 0.54 0.02 44 1003.3
20260504185545 62 0 12.2 22.6 0.00 0.55 0.02 43 1003.3
20260504185044 62 0 10.4 22.6 0.00 0.57 0.02 43 1003.1
20260504184545 61 0 7.8 17.4 0.00 0.60 0.02 42 1003.1
20260504184042 61 0 9.6 22.6 0.00 0.61 0.02 41 1003.2
20260504183841 61 0 7.8 22.6 0.00 0.62 0.02 42 1003.1
20260504183043 61 0 9.6 22.6 0.00 0.63 0.02 42 1003.0
20260504182543 61 0 9.6 17.4 0.00 0.64 0.02 40 1003.2
20260504182339 61 0 7.8 22.6 0.00 0.65 0.02 41 1003.3
20260504181543 60 0 13.0 22.6 0.00 0.67 0.02 41 1003.2
20260504181044 60 0 10.4 23.5 0.00 0.68 0.02 40 1003.3
20260504180543 60 0 9.6 23.5 0.00 0.69 0.02 38 1003.4
20260504180043 60 0 9.6 26.9 0.00 0.69 0.02 37 1003.6
20260504175543 60 0 14.8 26.9 0.00 0.70 0.02 37 1003.5
20260504175042 60 0 9.6 25.2 0.00 0.70 0.02 38 1003.5
20260504174542 59 0 13.9 28.7 0.00 0.71 0.02 35 1003.5
20260504174042 60 0 17.4 28.7 0.00 0.72 0.02 36 1003.6
20260504173541 59 0 12.2 20.9 0.00 0.72 0.02 36 1003.4
20260504173042 60 0 12.2 20.9 0.00 0.73 0.02 37 1003.6
20260504172542 60 0 7.8 18.2 0.00 0.74 0.02 38 1003.6
20260504172335 59 0 10.4 25.2 0.00 0.75 0.02 36 1003.6
20260504171542 59 0 10.4 27.8 0.00 0.76 0.02 35 1003.6
20260504171041 59 0 16.5 27.8 0.00 0.77 0.02 37 1003.6
20260504170542 59 0 11.3 27.8 0.00 0.77 0.02 36 1003.8
20260504151038 55 0 14.8 29.5 0.00 0.98 0.02 45 1004.2
20260504150538 54 0 11.3 28.7 0.00 0.98 0.02 45 1004.2
20260504141037 51 0 11.3 27.8 0.00 1.09 0.02 50 1003.9
20260504140537 51 0 13.9 29.5 0.00 1.09 0.02 50 1004.1
20260504130536 47 0 15.6 28.7 0.00 1.15 0.02 61 1003.8
20260504110634 42 0 13.0 23.5 0.00 1.16 0.02 82 1001.7
20260504110629 42 0 11.3 17.4 0.00 1.16 0.02 80 1001.8
20260504110624 42 0 11.3 20.0 0.00 1.16 0.02 79 1002.0
20260504110608 42 0 13.0 24.3 0.00 1.16 0.02 78 1002.1
20260504100534 42 0 8.7 20.0 0.00 1.16 0.02 84 1000.8
20260504081527 43 0 10.4 19.1 0.00 1.16 0.02 88 998.2
20260504081027 43 0 11.3 20.0 0.00 1.16 0.02 88 998.1
20260504080529 43 0 13.0 20.0 0.00 1.16 0.02 88 998.1